Location: Unspecified
(0.0000°N, 0.0000°E)
Time: 14:21:20
(UTC+00:00)

Altair - Pass Details

Date: 01 November 2021
Orbit: 1502 x 1682 km, 47.2° (Epoch: 26 November)

Event Time Altitude Azimuth Distance (km) Brightness Sun altitude
Rises 09:51:52 0° 312° (NW) 4,859 9.8 58.8°
Reaches altitude 10° 09:55:02 10° 308° (NW) 3,892 9.4 59.5°
Maximum altitude 10:04:51 61° 231° (SW) 1,863 8.8 61.6°
Drops below altitude 10° 10:14:51 10° 152° (SSE) 3,940 10.2 63.7°
Sets 10:18:05 0° 148° (SSE) 4,921 10.5 64.3°
